{"data":{"norad_id":81123,"intl_designator":"","name":"UNKNOWN","alt_names":[],"object_type":"UNKNOWN","status":"UNKNOWN","operator":null,"country":null,"launch_date":null,"launch_site_code":null,"launch_vehicle":null,"mission":null,"orbit_class":"UNKNOWN","rcs_meters":null,"size_class":null,"mass_kg":null,"dimensions":null,"purposes":[],"wikipedia_slug":null,"has_3d_model":false,"image_url":null,"decayed_at":null,"tle_current":{"epoch":"2026-05-24T00:31:00.969600Z","epoch_age_seconds":170175,"freshness":"FRESH","line1":"1 81123U          26144.02153900  .00000900  00000+0  88406-3 0  9999","line2":"2 81123  99.9649 239.6819 0002594  44.2622 315.8736 13.81981866628696","mean_motion":13.81981866,"eccentricity":0.0002594,"inclination_deg":99.9649,"raan_deg":239.6819,"arg_perigee_deg":44.2622,"mean_anomaly_deg":315.8736,"bstar":0.00088406,"rev_number":62869,"period_min":104.19818345142,"perigee_km":954.96300640726,"apogee_km":958.76840581119,"semimajor_km":7335.0027061092,"source":"CELESTRAK","updated_at":"2026-05-25T13:38:09.446178Z"}}}